CZ-6A DEB

Satellite information

Favourite Embed

Satellite Type and Status

DEBRISIN ORBIT

Key statistics

Satellite CZ-6A DEB at a glance.

Uptime

438

Days in orbit

Revolutions

≈ 14.3

Per day

Orbit

LEO

Low Earth Orbit

Inclination

88.6

Latest

Satellite identification and parameters

Extended collection of information and parameters for CZ-6A DEB.

Object identification

Identified? True

Debris? True

Object name: CZ-6A DEB

International designator: 2024-140AAW

Object number (NORAD): 61488

Object ID (CCSDS): 61488

Country: PEOPLES REPUBLIC OF CHINA (PRC)

Current information (Y/N): Y

RCS size: SMALL

Orbital parameters

Period: 100.505 minutes

Inclination: 88.6325 deg

SMA: 7160.64 km

Apoapsis: 843.404 km

Periapsis: 721.606 km

RAAN: 282.1745 deg

Eccentricy: 0.00850472

Argument of periapsis: 136.4964 deg

Mean anomaly: 224.2984 deg

Mean motion: 14.32765046 rev/day

Mean motion (dot): 0.00004717 rev/day2

B* drag term: 0.0016583417 1/REarth

Two-line elements (TLE)

Creation date: Oct. 18, 2025, 2:17 a.m.

Reference frame: TEME

Reference center: EARTH

Epoch: Oct. 17, 2025, 10:20 p.m. UTC

TLE line 0: 0 CZ-6A DEB

TLE line 1: 1 61488U 24140AAW 25290.93062328 .00004717 00000-0 16583-2 0 9993

TLE line 2: 2 61488 88.6325 282.1745 0085047 136.4964 224.2984 14.32765046 57604

Live tracking on map

Real-time ground track for satellite CZ-6A DEB.

In-orbit conjunctions

A list of the most updated potential collisions computed for object CZ-6A DEB.

Target Orbit TCA Probability of collision Miss distance Type
H-2A R/B SSO 2025-01-31 12:10:56 0.00013732 887.0 (m) ROCKET BODY
CZ-4 DEB SSO 2024-12-30 05:22:21 0.0002536601 743.0 (m) DEBRIS
FENGYUN 1C DEB SSO 2024-10-31 19:06:35 0.0005063976 236.0 (m) DEBRIS
DELTA 2 R/B(1) LEO 2024-10-29 00:12:20 0.0002962772 284.0 (m) ROCKET BODY

Associated space launch

18 Low Earth Orbit communication satellites with Ku, Q and V band payloads for the G60 constellation operated by Shanghai Spacecom Satellite Technology (SSST) with funding backed by the Shanghai local government. Initial constellation will consist of 1296 satellites by 2027 with long term plans to expand it to 12000 satellites.

CZ-6A DEB was lifted into orbit during the mission ‘Long March 6A | G60 Polar Group 01’, on board a Long March 6A space rocket.

The launch took place on Aug. 6, 2024, 6:42 a.m. from Launch Complex 9A.

For more information about the launch, click the button.

Launch to space Long March 6A | G60 Polar Group 01
Long March 6A | G60 Polar Group 01

Agency: N/A

Status: Launch Successful

Launch date: Aug. 6, 2024, 6:42 a.m. UTC

Rocket: Long March 6A

Launch pad: Launch Complex 9A

Location: Taiyuan Satellite Launch Center, People's Republic of China

...

Latest news about this satellite

News about space launch
Brightness of first Chinese broadband constellation satellites alarms astronomers

The first satellites of a Chinese broadband constellation are significantly brighter than those of Western systems, posing a new challenge for astronomers.

News about space launch
Chinese rocket stage breaks up into cloud of more than 700 pieces of space debris

HELSINKI — A Chinese Long March 6A rocket’s upper stage has fragmented into a cloud of over 700 pieces of space debris, adding to concerns about long-term orbital safety. China […]

News about space launch
China's Thousand Sails Megaconstellation Kicks Off with Dangerous Debris Field

China's Thousand Sails Megaconstellation Kicks Off with Dangerous Debris Field


Newsletter sign-up

Weekly statistics, charts and insights to help you stay on top of the space industry.